Czyste, bezchmurne niebo
Czyste niebo z niewielką liczbą niskich chmur
Czyste niebo, kilka chmur cirrus
Czyste niebo, kilka chmur cirrus
Czyste niebo z cirrusami
Czyste niebo z cirrusami
Czyste niebo z cirrusami
(°C)
21°
21°
20°
20°
19°
19°
18°
18°
17°
17°
17°
17°
17°
17°
(°C)
19°
18°
17°
17°
16°
16°
16°
SSE
ENE
ENE
ENE
NE
NNW
WNW
(km/h)
9-26
6-16
4-8
4-6
4-7
4-8
4-7
(mm)
0
0
0
0
0
0
0
(%)
0
0
0
0
0
0
0

Wysokość słońca

/ -13.3°
sun-icon
UV 9
06:47
21:15
Rosnący, garbaty księżyc (167°)
20:31
05:48

METAR dla Alcantarilla (LERI)

Czas Warunki Temperatura/
Punkt rosy
Wiatr Widzialność Pogoda Chmury Ciśnienie Zmień Surowy
VFR 25°C / 5°C 160º variable 130º to 190º 11kt 9700m - Clouds and Visibility OK 1014 No Significant change LERI 221800Z 16011KT 130V190 CAVOK 25/05 Q1014 NOSIG
VFR 26°C / 5°C 160º variable 140º to 200º 13kt 9700m - Clouds and Visibility OK 1014 No Significant change LERI 221730Z 16013KT 140V200 CAVOK 26/05 Q1014 NOSIG
VFR 26°C / 5°C 160º variable 120º to 210º 12kt 9700m - Clouds and Visibility OK 1014 No Significant change LERI 221700Z 16012KT 120V210 CAVOK 26/05 Q1014 NOSIG
VFR 27°C / 5°C 180º variable 150º to 210º 11kt 9700m - Clouds and Visibility OK 1014 No Significant change LERI 221630Z 18011KT 150V210 CAVOK 27/05 Q1014 NOSIG
VFR 27°C / 6°C 170º 15kt 9700m - Clouds and Visibility OK 1015 No Significant change LERI 221600Z 17015KT CAVOK 27/06 Q1015 NOSIG
VFR 27°C / 6°C 170º variable 130º to 200º 17kt Gust 27kt 9700m - Clouds and Visibility OK 1014 No Significant change LERI 221530Z 17017G27KT 130V200 CAVOK 27/06 Q1014 NOSIG
VFR 27°C / 6°C 170º variable 140º to 210º 17kt 9700m - Clouds and Visibility OK 1015 No Significant change LERI 221500Z 17017KT 140V210 CAVOK 27/06 Q1015 NOSIG
VFR 27°C / 6°C 170º 15kt 9700m - Clouds and Visibility OK 1015 No Significant change LERI 221430Z 17015KT CAVOK 27/06 Q1015 NOSIG
VFR 28°C / 6°C 160º variable 110º to 200º 15kt 9700m - Clouds and Visibility OK 1015 No Significant change LERI 221400Z 16015KT 110V200 CAVOK 28/06 Q1015 NOSIG
VFR 29°C / 7°C 200º variable 130º to 280º 6kt Gust 16kt 9700m - Few Clouds 3600ft 1015 No Significant change LERI 221330Z 20006G16KT 130V280 9999 FEW036 29/07 Q1015 NOSIG
VFR 28°C / 4°C 210º variable 160º to 300º 6kt 9700m - Few Clouds 3600ft 1016 No Significant change LERI 221300Z 21006KT 160V300 9999 FEW036 28/04 Q1016 NOSIG
VFR 28°C / 4°C 5kt 9700m - Few Clouds 3600ft 1016 No Significant change LERI 221230Z VRB05KT 9999 FEW036 28/04 Q1016 NOSIG
VFR 28°C / 3°C 7kt 9700m - Few Clouds 3600ft 1016 No Significant change LERI 221200Z VRB07KT 9999 FEW036 28/03 Q1016 NOSIG
VFR 27°C / 4°C 6kt 9700m - Few Clouds 3600ft 1016 No Significant change LERI 221130Z VRB06KT 9999 FEW036 27/04 Q1016 NOSIG
VFR 26°C / 4°C 4kt 9700m - Few Clouds 4000ft 1017 No Significant change LERI 221100Z VRB04KT 9999 FEW040 26/04 Q1017 NOSIG
VFR 26°C / 4°C 130º variable 070º to 190º 5kt 9700m - Clouds and Visibility OK 1017 No Significant change LERI 221030Z 13005KT 070V190 CAVOK 26/04 Q1017 NOSIG
VFR 25°C / 4°C 50º variable 360º to 150º 5kt 9700m - Clouds and Visibility OK 1017 No Significant change LERI 221000Z 05005KT 360V150 CAVOK 25/04 Q1017 NOSIG
VFR 24°C / 5°C 40º 2kt 9700m - Clouds and Visibility OK 1018 No Significant change LERI 220930Z 04002KT CAVOK 24/05 Q1018 NOSIG
VFR 24°C / 5°C 50º variable 340º to 110º 5kt 9700m - Clouds and Visibility OK 1018 No Significant change LERI 220900Z 05005KT 340V110 CAVOK 24/05 Q1018 NOSIG
VFR 24°C / 5°C 3kt 9700m - Clouds and Visibility OK 1018 No Significant change LERI 220830Z VRB03KT CAVOK 24/05 Q1018 NOSIG
VFR 23°C / 5°C 350º variable 280º to 050º 4kt 9700m - Clouds and Visibility OK 1018 No Significant change LERI 220800Z 35004KT 280V050 CAVOK 23/05 Q1018 NOSIG
VFR 23°C / 5°C 3kt 9700m - Clouds and Visibility OK 1018 No Significant change LERI 220730Z VRB03KT CAVOK 23/05 Q1018 NOSIG
VFR 21°C / 5°C 2kt 9700m - Clouds and Visibility OK 1018 No Significant change LERI 220700Z VRB02KT CAVOK 21/05 Q1018 NOSIG
VFR 19°C / 5°C 160º variable 100º to 240º 3kt 9700m - Clouds and Visibility OK 1018 No Significant change LERI 220630Z 16003KT 100V240 CAVOK 19/05 Q1018 NOSIG

VFR

25°C / 5°C

[Więcej]
Wiatr 160º variable 130º to 190º 11kt
Widzialność 9700m
Pogoda -
Chmury Clouds and Visibility OK
Ciśnienie 1014
Zmień No Significant change
Surowy LERI 221800Z 16011KT 130V190 CAVOK 25/05 Q1014 NOSIG

VFR

26°C / 5°C

[Więcej]
Wiatr 160º variable 140º to 200º 13kt
Widzialność 9700m
Pogoda -
Chmury Clouds and Visibility OK
Ciśnienie 1014
Zmień No Significant change
Surowy LERI 221730Z 16013KT 140V200 CAVOK 26/05 Q1014 NOSIG

VFR

26°C / 5°C

[Więcej]
Wiatr 160º variable 120º to 210º 12kt
Widzialność 9700m
Pogoda -
Chmury Clouds and Visibility OK
Ciśnienie 1014
Zmień No Significant change
Surowy LERI 221700Z 16012KT 120V210 CAVOK 26/05 Q1014 NOSIG

VFR

27°C / 5°C

[Więcej]
Wiatr 180º variable 150º to 210º 11kt
Widzialność 9700m
Pogoda -
Chmury Clouds and Visibility OK
Ciśnienie 1014
Zmień No Significant change
Surowy LERI 221630Z 18011KT 150V210 CAVOK 27/05 Q1014 NOSIG

VFR

27°C / 6°C

[Więcej]
Wiatr 170º 15kt
Widzialność 9700m
Pogoda -
Chmury Clouds and Visibility OK
Ciśnienie 1015
Zmień No Significant change
Surowy LERI 221600Z 17015KT CAVOK 27/06 Q1015 NOSIG

VFR

27°C / 6°C

[Więcej]
Wiatr 170º variable 130º to 200º 17kt Gust 27kt
Widzialność 9700m
Pogoda -
Chmury Clouds and Visibility OK
Ciśnienie 1014
Zmień No Significant change
Surowy LERI 221530Z 17017G27KT 130V200 CAVOK 27/06 Q1014 NOSIG

VFR

27°C / 6°C

[Więcej]
Wiatr 170º variable 140º to 210º 17kt
Widzialność 9700m
Pogoda -
Chmury Clouds and Visibility OK
Ciśnienie 1015
Zmień No Significant change
Surowy LERI 221500Z 17017KT 140V210 CAVOK 27/06 Q1015 NOSIG

VFR

27°C / 6°C

[Więcej]
Wiatr 170º 15kt
Widzialność 9700m
Pogoda -
Chmury Clouds and Visibility OK
Ciśnienie 1015
Zmień No Significant change
Surowy LERI 221430Z 17015KT CAVOK 27/06 Q1015 NOSIG

VFR

28°C / 6°C

[Więcej]
Wiatr 160º variable 110º to 200º 15kt
Widzialność 9700m
Pogoda -
Chmury Clouds and Visibility OK
Ciśnienie 1015
Zmień No Significant change
Surowy LERI 221400Z 16015KT 110V200 CAVOK 28/06 Q1015 NOSIG

VFR

29°C / 7°C

[Więcej]
Wiatr 200º variable 130º to 280º 6kt Gust 16kt
Widzialność 9700m
Pogoda -
Chmury Few Clouds 3600ft
Ciśnienie 1015
Zmień No Significant change
Surowy LERI 221330Z 20006G16KT 130V280 9999 FEW036 29/07 Q1015 NOSIG

VFR

28°C / 4°C

[Więcej]
Wiatr 210º variable 160º to 300º 6kt
Widzialność 9700m
Pogoda -
Chmury Few Clouds 3600ft
Ciśnienie 1016
Zmień No Significant change
Surowy LERI 221300Z 21006KT 160V300 9999 FEW036 28/04 Q1016 NOSIG

VFR

28°C / 4°C

[Więcej]
Wiatr 5kt
Widzialność 9700m
Pogoda -
Chmury Few Clouds 3600ft
Ciśnienie 1016
Zmień No Significant change
Surowy LERI 221230Z VRB05KT 9999 FEW036 28/04 Q1016 NOSIG

VFR

28°C / 3°C

[Więcej]
Wiatr 7kt
Widzialność 9700m
Pogoda -
Chmury Few Clouds 3600ft
Ciśnienie 1016
Zmień No Significant change
Surowy LERI 221200Z VRB07KT 9999 FEW036 28/03 Q1016 NOSIG

VFR

27°C / 4°C

[Więcej]
Wiatr 6kt
Widzialność 9700m
Pogoda -
Chmury Few Clouds 3600ft
Ciśnienie 1016
Zmień No Significant change
Surowy LERI 221130Z VRB06KT 9999 FEW036 27/04 Q1016 NOSIG

VFR

26°C / 4°C

[Więcej]
Wiatr 4kt
Widzialność 9700m
Pogoda -
Chmury Few Clouds 4000ft
Ciśnienie 1017
Zmień No Significant change
Surowy LERI 221100Z VRB04KT 9999 FEW040 26/04 Q1017 NOSIG

VFR

26°C / 4°C

[Więcej]
Wiatr 130º variable 070º to 190º 5kt
Widzialność 9700m
Pogoda -
Chmury Clouds and Visibility OK
Ciśnienie 1017
Zmień No Significant change
Surowy LERI 221030Z 13005KT 070V190 CAVOK 26/04 Q1017 NOSIG

VFR

25°C / 4°C

[Więcej]
Wiatr 50º variable 360º to 150º 5kt
Widzialność 9700m
Pogoda -
Chmury Clouds and Visibility OK
Ciśnienie 1017
Zmień No Significant change
Surowy LERI 221000Z 05005KT 360V150 CAVOK 25/04 Q1017 NOSIG

VFR

24°C / 5°C

[Więcej]
Wiatr 40º 2kt
Widzialność 9700m
Pogoda -
Chmury Clouds and Visibility OK
Ciśnienie 1018
Zmień No Significant change
Surowy LERI 220930Z 04002KT CAVOK 24/05 Q1018 NOSIG

VFR

24°C / 5°C

[Więcej]
Wiatr 50º variable 340º to 110º 5kt
Widzialność 9700m
Pogoda -
Chmury Clouds and Visibility OK
Ciśnienie 1018
Zmień No Significant change
Surowy LERI 220900Z 05005KT 340V110 CAVOK 24/05 Q1018 NOSIG

VFR

24°C / 5°C

[Więcej]
Wiatr 3kt
Widzialność 9700m
Pogoda -
Chmury Clouds and Visibility OK
Ciśnienie 1018
Zmień No Significant change
Surowy LERI 220830Z VRB03KT CAVOK 24/05 Q1018 NOSIG

VFR

23°C / 5°C

[Więcej]
Wiatr 350º variable 280º to 050º 4kt
Widzialność 9700m
Pogoda -
Chmury Clouds and Visibility OK
Ciśnienie 1018
Zmień No Significant change
Surowy LERI 220800Z 35004KT 280V050 CAVOK 23/05 Q1018 NOSIG

VFR

23°C / 5°C

[Więcej]
Wiatr 3kt
Widzialność 9700m
Pogoda -
Chmury Clouds and Visibility OK
Ciśnienie 1018
Zmień No Significant change
Surowy LERI 220730Z VRB03KT CAVOK 23/05 Q1018 NOSIG

VFR

21°C / 5°C

[Więcej]
Wiatr 2kt
Widzialność 9700m
Pogoda -
Chmury Clouds and Visibility OK
Ciśnienie 1018
Zmień No Significant change
Surowy LERI 220700Z VRB02KT CAVOK 21/05 Q1018 NOSIG

VFR

19°C / 5°C

[Więcej]
Wiatr 160º variable 100º to 240º 3kt
Widzialność 9700m
Pogoda -
Chmury Clouds and Visibility OK
Ciśnienie 1018
Zmień No Significant change
Surowy LERI 220630Z 16003KT 100V240 CAVOK 19/05 Q1018 NOSIG

TAF dla Alcantarilla (LERI)

From till


Maximum Temperature 27ºC on . Minimum Temperature 14ºC on .
From till Wind 180º 10kt. Visibility 9700m. Nil Significant Cloud.
Becoming from till
Becoming from till

Surowy: TAF LERI 221700Z 2218/2318 18010KT CAVOK TX27/2314Z TN14/2305Z BECMG 2219/2221 VRB03KT BECMG 2309/2311 09010KT

Radar i prognoza opadów na teraz dla Alcantarilla

Mżawka
Lekkie
Umiarkowane
Intensywne
Bardzo Intensywne
Grad

Wskaźnik lokalizacji jest umieszczony na Alcantarilla. Ta animacja pokazuje radar opadów dla wybranego zakresu czasu, jak również prognozę 2h. Pomarańczowe krzyże oznaczają wyładowania atmosferyczne. Dane dostarczone przez nowcast.de (dostępne w USA, Europie, Australii). Mżawka lub lekki opad śniegu może być niewidoczny dla radaru. Intensywność opadów jest oznaczona kolorami, od turkusowego do czerwonego.

Aktualne zdjęcia satelitarne i zdjęcia opadów deszczu dla Alcantarilla, Hiszpania

Wskaźnik lokalizacji znajduje się na Alcantarilla. [Więcej]

Obraz satelitarny w czasie rzeczywistym łączy światło widzialne w ciągu dnia z promieniowaniem podczerwonym w nocy. W nocy obraz nie jest ciemny, ponieważ promieniowanie podczerwone może wykrywać różnice temperatur. Niestety niskie chmury i mgłę trudno odróżnić od temperatury gruntu, przez co mogą być prawie niewidoczne w nocy. Zdjęcia satelitarne Meteosat dla Europy są aktualizowane w czasie rzeczywistym co 5 minut. Obrazy GOES-16/GOES-17 (Ameryka Północna i Południowa) oraz Himawari (Azja) są aktualizowane co 10 minut.

Opady są szacowane na podstawie radarów i satelitów. Szacunki opadów z satelitów są mniej dokładne w nocy niż w ciągu dnia.

© 2024 meteoblue, NOAA Satellites GOES-16 and EUMETSAT. Dane dot. błyskawic dostarczone przez nowcast.

Powrót do góry
×
Hej tam,
wygląda na to, że używasz blokera reklam.

Reklama jest niezbędna do utrzymania naszej darmowej strony internetowej z wyjątkową szczegółowością i dokładnością.

Proszę whitelist www.meteoblue.com na swoim blokerze reklam lub rozważyć zakup jednego z naszych produktów:

Masz już subskrypcję?
Więc proszę login.